GFSSW_500_spd_063.txt.gz
Wind_Speed
28 25 23 22 20 19 16 14 10 9 8 8 7 6 6 9 7 4 7 7 9 10 11 7 7 11 9 6 6 3 9 9 8 12 20 16 22 15 17 20 20 20 17 18 23
30 29 28 26 25 23 21 18 14 12 11 10 10 8 8 10 10 10 9 9 8 11 14 10 5 8 12 7 8 8 8 13 11 19 19 18 20 19 23 20 20 19 17 20 22
34 33 32 29 27 27 26 23 19 15 15 13 12 11 11 11 12 10 11 10 10 11 14 15 9 10 10 7 10 4 9 12 12 13 17 21 22 18 24 22 21 24 19 20 22
36 36 34 33 31 31 30 28 25 19 18 17 16 16 14 14 14 13 13 12 11 13 15 17 14 11 11 10 12 8 7 4 1 11 15 18 17 20 21 24 19 19 19 19 19
38 38 37 36 34 33 32 32 30 25 20 20 18 19 18 16 17 16 17 15 11 15 17 19 19 16 19 16 15 11 13 10 8 5 10 10 12 18 21 24 25 21 19 19 21
40 40 40 39 36 36 35 35 34 30 25 21 21 21 22 19 17 20 19 16 14 15 18 22 23 17 17 20 18 17 17 13 12 3 5 3 5 12 17 17 20 22 20 20 21
41 40 40 40 40 37 36 36 36 34 30 25 23 23 24 21 17 21 21 19 17 15 18 22 22 22 21 20 19 23 16 11 5 6 3 3 3 9 12 12 15 21 21 21 23
43 43 41 42 42 40 38 38 39 38 34 29 23 26 26 21 22 24 19 21 22 19 20 24 26 22 25 20 22 24 25 16 9 8 8 8 10 8 8 7 11 12 15 22 22
44 43 43 42 42 41 41 40 40 37 35 33 28 25 26 24 24 24 20 24 23 21 21 20 22 23 26 22 22 22 15 13 12 13 13 13 12 13 10 9 7 10 16 20 18
45 45 43 43 42 41 45 44 44 42 38 35 30 26 23 24 22 21 23 26 24 25 24 23 18 19 24 26 25 21 20 17 17 18 20 20 17 17 9 3 6 7 16 14 21
46 45 45 43 42 40 43 45 46 43 40 37 33 27 25 26 24 22 21 26 25 23 25 26 18 16 23 30 29 25 22 18 13 22 27 25 25 22 23 11 7 8 9 18 24
48 47 46 45 43 41 42 43 44 43 40 37 33 30 24 27 23 25 23 19 25 25 28 25 18 20 23 34 36 27 29 18 16 8 11 22 14 19 24 17 16 12 12 17 22
49 49 48 47 45 44 44 42 41 39 39 35 36 31 23 31 23 26 27 21 22 26 26 23 24 25 24 34 36 35 29 19 13 11 11 19 21 20 19 17 13 11 11 17 18
43 49 48 48 47 46 44 42 39 37 39 33 32 29 26 30 25 25 26 26 24 21 26 24 25 24 26 33 34 30 26 25 19 17 19 21 20 20 19 18 14 10 7 8 16
36 41 47 46 47 47 44 42 39 39 39 30 29 30 28 31 18 27 26 28 24 27 25 19 21 24 26 27 38 36 26 24 21 20 21 17 22 16 19 20 16 17 14 6 12
36 36 42 43 45 47 45 42 41 40 39 24 23 24 27 26 23 31 29 28 26 28 30 21 24 26 24 28 36 37 32 28 23 24 26 22 25 19 22 25 27 22 19 12 11
35 33 37 36 42 45 44 43 43 42 34 27 23 25 21 24 22 28 32 30 27 28 26 27 24 23 25 28 33 30 27 27 27 26 27 26 27 27 27 19 13 16 14 16 13
30 31 38 38 41 42 42 44 46 42 35 25 29 27 22 24 26 28 29 30 27 25 28 28 27 22 24 27 29 27 27 25 27 35 34 31 29 30 21 14 14 11 16 17 22
30 30 33 37 36 38 40 44 45 43 35 33 25 29 27 27 25 30 30 25 21 24 25 30 24 21 26 27 30 26 21 20 22 23 27 28 26 24 16 15 13 12 16 22 26
31 30 34 34 35 37 39 41 44 41 35 32 34 33 30 26 27 29 26 21 22 19 21 24 27 22 25 30 23 25 18 20 21 21 22 23 26 24 22 19 18 20 22 26 30
30 30 29 31 33 37 36 38 41 36 36 36 38 36 35 28 28 25 20 25 26 23 18 24 25 24 25 28 26 22 18 16 16 23 23 22 24 20 16 22 21 23 26 27 29
28 26 26 28 31 34 35 38 39 34 37 37 41 43 39 34 30 26 27 30 29 28 22 22 23 28 29 27 21 24 24 20 18 16 26 24 23 21 16 18 20 25 26 25 28
27 26 26 24 27 31 34 35 37 36 38 39 45 47 47 41 38 31 28 28 24 25 24 25 26 27 33 32 23 27 28 27 18 19 21 30 27 24 23 22 18 22 18 22 25
34 31 28 25 28 28 30 30 30 32 39 40 46 50 47 47 42 37 34 32 29 25 29 27 26 26 30 33 28 23 28 30 23 23 26 29 28 25 27 28 21 20 16 19 24
12 37 33 31 30 28 27 27 26 30 38 44 48 49 47 51 45 45 39 35 29 25 30 31 27 28 25 35 35 28 27 24 30 30 26 31 32 30 26 26 24 24 26 26 28
8 16 37 42 37 30 28 26 25 30 39 46 49 49 46 50 50 45 46 42 36 33 30 34 35 32 29 32 42 35 34 31 29 34 36 33 30 31 28 28 29 29 25 24 20
16 9 9 12 35 34 31 31 30 31 35 42 46 47 47 43 48 50 49 47 44 36 36 33 33 32 33 33 35 36 37 35 38 38 38 38 34 26 31 30 25 21 22 18 19

GFSSW_500_spd_066.txt.gz
Wind_Speed
26 24 23 22 20 19 17 15 11 9 8 7 7 8 8 8 6 5 4 5 7 6 2 6 7 4 6 4 6 7 14 14 20 18 15 20 23 21 25 25 22 23 22 21 23
32 30 27 26 25 23 21 19 16 12 10 9 9 10 10 10 9 10 4 5 7 10 5 6 8 5 3 6 2 3 4 11 16 17 20 21 22 23 23 24 22 23 21 22 21
34 34 32 29 29 27 26 24 21 18 14 13 12 11 11 12 12 11 8 7 8 11 8 8 10 9 9 7 6 7 4 1 9 15 16 18 19 22 20 22 22 22 24 25 25
36 37 38 35 32 31 31 29 26 23 17 15 15 14 14 15 14 14 12 10 9 11 13 10 10 13 15 10 9 12 7 2 7 10 15 17 18 16 18 18 21 25 23 24 25
37 38 39 39 38 36 32 31 31 28 24 18 18 17 17 18 16 17 17 15 11 10 13 16 10 15 15 10 13 15 9 10 4 6 9 12 15 15 15 15 18 21 21 22 22
38 38 39 41 40 39 36 34 34 32 28 25 21 21 20 21 18 20 20 17 15 13 13 17 17 11 16 14 12 15 14 11 8 3 3 11 11 8 9 11 16 18 21 24 24
40 39 39 39 40 41 41 38 36 35 33 30 26 23 23 21 21 25 23 22 19 15 15 19 17 16 12 17 18 17 19 16 9 5 4 4 5 1 3 5 15 17 17 24 25
43 42 41 40 39 40 41 41 39 36 36 35 31 25 25 21 26 27 23 21 23 20 19 20 18 15 18 16 19 21 24 22 14 15 16 4 2 4 3 2 13 10 14 17 20
46 45 43 41 40 40 41 41 41 41 39 37 36 31 26 24 24 27 24 22 22 21 22 20 17 13 17 23 21 27 25 24 26 24 16 18 10 3 1 4 7 9 13 15 19
48 47 46 44 41 39 41 42 42 43 42 42 39 33 27 23 24 27 27 22 22 23 24 22 18 13 16 24 23 22 24 24 21 18 18 21 16 7 6 5 3 8 13 17 23
51 50 48 46 44 41 42 40 43 44 43 42 38 36 31 27 25 26 28 26 22 23 23 25 19 15 20 24 26 28 23 21 18 19 17 23 22 14 10 5 1 5 8 16 18
54 52 50 49 46 44 43 42 40 42 42 42 40 36 32 31 27 25 28 27 23 20 26 25 19 20 23 21 25 34 28 23 18 19 20 19 8 9 12 11 6 6 10 15 13
52 54 53 51 48 45 44 42 40 39 41 37 37 36 32 32 27 24 28 27 25 18 22 24 21 26 24 25 25 35 31 23 16 22 24 20 12 13 17 19 11 10 12 14 13
40 46 53 52 49 46 44 43 40 39 42 35 35 33 31 29 31 23 29 29 28 21 21 22 26 26 26 25 25 37 32 30 26 24 20 16 17 15 22 21 14 16 16 14 16
38 36 39 49 51 47 44 43 40 40 41 33 33 31 31 29 23 23 28 31 26 23 27 17 25 26 24 24 30 30 35 33 27 28 26 23 26 19 21 21 21 21 19 17 19
34 36 36 35 42 49 46 43 40 40 40 30 30 28 29 29 27 25 31 31 27 29 30 20 24 25 21 25 29 31 36 32 27 23 30 26 26 21 20 24 20 21 21 15 15
33 31 35 35 36 40 44 42 41 44 36 35 30 21 26 25 28 27 32 34 31 30 28 23 23 22 22 22 26 34 36 34 33 29 31 26 32 29 27 23 22 20 15 17 20
35 33 33 36 36 36 39 41 45 45 40 37 30 26 22 21 26 28 31 35 36 30 27 28 25 22 23 23 29 35 34 30 32 34 31 32 31 25 25 25 21 18 11 15 13
34 31 31 35 35 35 36 39 42 41 41 36 32 28 25 24 25 27 32 34 33 31 30 26 27 23 24 27 32 33 33 33 31 28 30 28 29 34 35 23 16 16 16 16 19
30 29 31 31 32 37 39 38 37 35 38 36 33 34 34 30 27 26 29 31 29 29 29 26 24 28 25 29 33 31 28 29 27 28 28 24 20 20 21 21 18 23 24 24 22
27 28 32 31 33 34 37 34 34 35 38 37 36 37 35 34 32 29 29 31 30 29 27 25 26 27 28 26 30 31 28 27 25 27 25 22 19 14 10 15 21 26 26 25 24
29 28 29 32 32 33 33 32 32 37 38 37 36 38 36 38 33 31 32 29 29 29 29 23 25 29 26 27 30 33 30 26 23 21 20 20 21 16 17 18 17 21 27 23 22
25 26 27 26 28 30 32 33 36 38 39 37 36 40 44 40 37 33 33 30 27 30 32 25 25 26 27 31 30 29 30 29 30 24 21 19 20 20 22 21 18 21 23 24 25
25 28 28 25 25 26 28 31 33 36 37 37 36 42 45 45 40 38 33 29 29 31 32 26 25 26 31 29 29 29 27 25 29 31 25 22 21 20 21 22 21 22 24 23 22
9 21 29 28 29 26 24 24 25 28 32 38 38 42 47 47 44 42 35 33 31 27 26 24 26 24 25 28 33 33 27 22 26 25 24 26 24 20 20 24 26 25 23 21 19
14 11 16 29 28 27 22 21 21 24 29 36 36 42 47 47 44 47 42 34 35 31 28 25 24 25 23 24 28 32 28 27 27 26 23 24 27 27 27 19 18 21 21 22 19
14 14 10 21 37 29 24 24 23 23 28 34 39 42 45 45 42 42 46 40 37 31 30 30 27 26 27 26 27 30 29 26 30 31 31 26 29 30 24 28 23 24 21 22 14

GFSSW_500_spd_069.txt.gz
Wind_Speed
25 26 26 21 23 21 17 15 12 10 8 7 8 8 6 6 5 3 1 3 4 2 1 4 4 2 2 13 16 6 6 7 10 14 15 14 15 16 19 19 22 27 26 27 27
28 28 28 25 24 24 22 19 17 13 11 9 9 10 11 9 8 7 3 3 2 3 1 4 4 5 7 1 14 7 1 5 5 10 14 13 12 13 16 18 20 24 24 27 25
31 33 32 30 28 28 26 24 21 18 14 12 12 12 13 13 11 8 6 6 8 2 2 5 6 8 9 9 1 8 0 6 3 7 10 9 9 11 14 19 18 20 23 27 25
34 36 36 35 34 32 30 29 27 25 20 16 16 15 15 15 12 12 10 9 9 9 4 5 9 10 11 10 11 5 3 6 3 5 4 8 8 10 12 18 19 18 22 23 25
38 38 39 39 38 36 34 33 31 30 27 22 18 19 18 16 16 16 16 13 12 11 12 7 11 13 13 13 13 6 7 1 1 2 3 3 6 9 11 17 18 17 19 23 23
41 40 41 42 43 43 41 38 36 33 31 29 25 21 21 18 19 19 19 17 16 14 15 13 9 11 15 14 13 12 7 7 5 6 1 2 1 6 7 13 16 15 16 21 25
44 43 42 41 44 46 46 44 41 37 35 34 31 25 22 20 22 24 22 20 20 17 18 19 11 11 12 16 14 13 14 13 4 6 5 3 6 3 4 7 13 12 14 17 22
45 45 44 42 41 42 44 45 43 42 39 36 34 33 27 19 23 28 25 21 21 22 24 21 16 9 12 15 16 17 19 18 16 14 10 12 12 8 7 2 9 12 19 16 19
47 46 45 44 43 42 43 43 42 42 41 37 36 34 32 23 22 27 28 27 25 22 23 22 17 10 11 13 18 19 21 20 21 20 18 10 6 11 9 6 3 6 13 19 20
49 48 47 46 44 42 42 42 41 40 39 38 35 36 33 27 23 26 28 29 28 26 23 22 18 14 14 17 17 24 27 25 23 24 22 14 7 8 10 10 6 1 8 16 23
54 52 50 47 45 44 43 42 42 43 40 39 38 37 34 32 27 24 27 31 29 29 26 22 19 16 18 20 21 22 25 23 17 18 15 15 13 17 15 14 11 5 2 13 22
52 55 54 51 47 46 44 43 42 42 41 42 41 38 37 35 30 27 27 30 30 27 28 25 18 21 22 22 22 24 24 19 12 17 20 20 17 18 10 15 15 12 2 7 18
44 48 53 55 52 47 45 44 43 42 42 38 39 39 37 37 31 24 27 30 31 29 27 27 19 24 24 26 23 23 20 17 18 19 21 23 14 19 15 9 13 12 7 7 15
41 42 44 50 53 52 48 44 42 41 44 39 38 35 33 32 34 24 27 29 32 29 28 29 22 24 26 23 23 23 21 18 21 23 22 22 18 14 15 16 12 13 13 15 18
38 39 40 41 44 48 48 47 42 41 43 39 38 35 34 33 27 25 27 29 29 29 29 25 20 25 24 21 26 21 23 23 24 26 29 26 26 19 21 21 18 18 20 20 20
36 37 38 37 38 39 44 47 42 40 42 36 33 33 30 30 29 27 28 30 29 31 33 27 24 23 18 23 24 24 24 25 29 29 28 25 28 21 24 24 23 24 26 23 16
33 35 35 36 38 34 33 39 41 46 39 37 33 30 25 25 26 30 30 32 32 31 32 27 23 22 19 20 20 23 26 28 30 30 27 25 25 20 26 28 26 28 30 16 11
30 32 32 34 35 35 33 33 39 44 39 38 30 29 25 22 25 29 31 34 33 31 29 29 26 21 20 18 20 23 26 26 26 30 28 30 28 24 26 33 33 30 17 15 12
31 30 32 35 33 34 33 35 33 31 35 35 30 27 25 27 23 27 30 33 34 31 30 29 27 22 20 22 25 27 26 25 27 28 29 27 27 29 27 26 26 18 14 15 16
23 27 28 32 34 34 34 34 31 29 31 32 31 31 28 27 26 27 27 31 35 36 33 32 28 28 28 25 27 31 30 28 29 30 29 28 26 23 21 15 13 11 15 18 22
25 23 27 30 32 33 33 33 31 29 30 31 30 32 31 30 32 30 27 28 30 30 30 32 33 27 28 29 25 30 35 35 34 32 27 25 22 15 11 8 9 13 19 22 24
25 27 26 30 29 32 29 28 27 30 32 34 33 32 36 36 36 33 31 30 29 28 26 28 29 30 27 27 29 30 33 37 31 26 23 22 22 17 17 13 14 15 17 18 17
21 25 28 27 29 31 30 30 30 31 34 34 34 33 37 39 38 39 36 34 30 26 25 26 30 28 29 28 29 29 30 31 28 27 21 22 17 15 15 18 18 15 17 20 21
10 17 23 25 26 28 30 30 29 31 33 33 33 33 37 40 39 38 38 36 31 27 26 26 29 29 27 28 28 28 26 25 24 25 24 26 21 17 18 18 16 15 16 18 15
8 10 26 26 26 27 25 24 26 31 32 33 31 32 36 40 41 39 36 36 31 25 28 25 27 26 22 24 29 28 29 26 24 22 22 22 27 25 20 18 17 17 13 15 15
13 12 14 22 28 24 23 21 22 25 26 29 28 33 37 41 42 39 40 36 30 27 27 27 28 26 26 23 21 27 27 28 24 26 22 18 17 21 20 21 22 17 20 13 18
15 14 14 8 14 22 26 22 20 19 21 24 26 30 35 40 44 41 40 40 36 31 28 30 27 24 23 22 23 23 23 22 21 20 25 22 19 19 18 18 19 17 19 18 16

GFSSW_500_spd_072.txt.gz
Wind_Speed
25 24 24 23 23 19 19 16 14 11 9 8 6 5 4 5 4 6 6 6 6 6 5 3 5 10 8 9 9 6 9 9 6 4 4 8 11 13 15 20 21 24 27 26 25
27 27 28 28 28 24 25 23 19 15 13 12 11 9 8 7 8 5 6 6 5 5 6 5 4 6 9 7 6 4 6 6 5 4 7 7 9 13 14 16 18 21 22 24 27
31 31 31 32 32 29 28 28 24 21 17 15 14 13 12 11 9 8 8 7 6 5 4 6 6 6 4 10 5 4 1 2 2 2 5 6 8 11 13 14 15 18 22 22 26
34 34 34 34 35 34 32 31 29 26 22 19 17 16 15 15 12 13 13 10 8 7 7 7 9 10 8 5 7 7 4 3 1 3 6 6 8 11 12 15 14 16 18 23 27
39 39 39 38 38 38 37 35 32 31 28 24 22 21 18 18 17 17 16 15 12 10 9 10 11 12 12 10 5 8 9 4 3 3 3 4 4 8 9 15 15 15 17 21 24
44 44 42 42 42 43 41 40 37 34 33 31 27 24 22 20 20 21 20 18 16 15 12 12 12 12 14 14 12 9 12 8 5 5 3 5 5 7 7 10 13 13 15 17 22
46 47 46 45 44 45 46 44 41 39 37 35 32 30 26 21 24 23 23 19 18 20 18 13 12 13 13 17 14 13 12 12 11 9 5 3 10 10 10 6 7 11 15 16 18
46 47 48 47 46 45 47 48 47 45 42 41 38 36 31 24 22 27 23 23 22 23 24 20 12 12 14 17 16 16 15 8 16 10 10 7 5 17 13 9 2 8 10 14 16
50 49 49 49 47 46 46 46 47 48 48 46 43 40 37 31 21 27 25 26 26 26 25 21 17 14 14 15 18 18 14 13 15 13 16 12 8 13 15 15 10 8 10 14 17
52 52 52 51 49 48 47 46 45 46 47 47 45 42 39 35 26 25 27 26 25 28 28 26 19 15 17 19 17 14 19 16 17 19 16 14 12 14 9 16 15 10 9 13 18
46 48 52 53 51 49 48 46 46 46 44 45 43 41 38 36 34 29 25 26 26 28 27 28 24 18 20 23 24 26 24 19 20 23 22 13 14 14 16 11 19 13 7 10 17
45 45 48 48 51 51 48 47 46 47 44 43 42 39 38 38 36 34 28 27 27 25 29 31 27 23 25 25 24 22 22 18 20 24 16 14 12 10 11 10 20 14 10 6 15
45 42 44 45 44 47 50 47 46 45 45 42 40 39 40 40 36 34 30 26 27 27 29 29 24 31 26 26 25 23 18 18 21 20 18 16 11 13 12 9 12 13 14 9 13
41 41 41 44 41 40 43 46 47 44 44 42 40 38 40 42 43 34 32 28 29 29 29 31 27 29 29 25 22 23 20 22 20 22 17 21 15 14 13 12 11 14 15 16 16
37 40 40 41 41 37 35 38 42 43 43 43 40 37 39 39 39 37 32 32 30 29 30 28 29 28 30 21 25 22 25 22 21 20 20 22 21 12 18 15 12 20 19 20 22
33 34 37 37 39 36 34 33 36 39 44 42 39 36 36 35 34 37 32 34 30 30 32 30 34 29 25 25 25 23 21 22 20 19 22 16 23 13 12 19 17 20 22 22 22
32 32 30 34 35 34 32 30 34 38 40 39 39 36 32 32 32 34 33 34 33 34 33 34 31 27 27 23 22 20 20 16 15 17 18 20 26 15 18 26 24 23 24 26 20
28 30 28 30 32 32 31 30 32 31 36 37 34 33 28 27 26 30 33 35 35 32 26 30 28 25 25 23 18 19 18 16 15 14 15 24 25 15 20 20 22 26 28 18 13
25 26 27 28 29 30 31 32 31 30 29 33 33 26 28 29 26 28 30 32 35 34 33 24 28 28 25 23 24 21 21 14 19 20 18 17 18 20 18 19 18 21 25 17 12
25 22 23 29 27 30 30 28 32 32 25 27 32 30 28 30 28 26 27 31 34 36 31 25 21 28 28 27 25 26 19 21 18 17 18 15 18 16 15 10 9 12 12 14 17
23 21 19 23 27 29 32 31 33 27 26 27 31 34 33 29 29 28 27 28 31 36 36 33 31 21 30 32 24 25 24 26 20 21 17 16 14 20 15 11 11 8 11 16 19
17 22 23 21 24 27 28 31 31 27 29 28 29 33 35 33 30 30 28 31 28 30 33 34 31 32 25 22 27 22 21 25 26 23 22 24 17 22 16 12 16 15 15 18 16
15 17 21 26 25 27 28 30 30 30 30 30 28 30 34 38 33 31 31 31 28 25 26 27 29 29 29 31 31 31 29 29 29 27 22 17 13 21 16 12 14 17 18 17 16
13 12 15 24 26 26 28 30 27 26 28 28 27 29 32 35 38 33 27 31 31 28 25 25 25 27 25 24 22 26 27 27 26 20 17 19 17 24 17 14 15 12 8 13 17
11 10 10 18 25 26 27 31 26 27 28 28 26 28 32 35 36 37 33 27 30 31 27 27 24 24 28 29 27 23 20 24 24 19 18 18 23 24 24 24 19 16 12 11 14
12 11 9 15 24 23 24 26 29 25 27 28 25 27 31 35 36 34 34 32 29 28 29 26 27 21 22 28 24 21 24 26 26 24 23 22 24 22 20 21 23 19 15 14 16
15 13 12 8 11 22 29 24 26 20 21 22 24 27 30 34 37 38 34 37 33 28 27 27 25 22 19 26 26 23 22 26 29 26 24 21 24 20 18 17 18 17 17 18 18